Weather History for Jacksonville, NC

Change the Weather History Date:

Monday, July 1, 2013

  Actual Average Record
Temperature  
Mean Temperature 76 °F -  
Max Temperature 80 °F 86 °F 100 °F (2012)
Min Temperature 73 °F 66 °F 62 °F (2002)
Cooling Degree Days 12    
Growing Degree Days 26 (Base 50)    
Moisture  
Dew Point 73 °F    
Average Humidity 91    
Maximum Humidity 94    
Minimum Humidity 79    
Precipitation  
Precipitation 0.00 in - - ()
Sea Level Pressure  
Sea Level Pressure 29.97 in    
Wind  
Wind Speed 10 mph (SSE)    
Max Wind Speed 16 mph    
Max Gust Speed 26 mph    
Visibility 10 miles    
Events Thunderstorm    
Averages and records for this station are not official NWS values.
T = Trace of Precipitation, MM = Missing Value Source: NWS Daily Summary

Daily Weather History Graph

Daily Weather History Graph

Search for Another Location

Airport:

Trip Planner

Search our weather history database for the weather conditions in past years. The results will help you decide how hot, cold, wet, or windy it might be!

Date:

Astronomy

Jul. 01, 2013 Rise Set
Actual Time 6:00 AM EDT 8:27 PM EDT
Civil Twilight 5:31 AM EDT 8:57 PM EDT
Nautical Twilight 4:54 AM EDT 9:33 PM EDT
Astronomical Twilight 4:14 AM EDT 10:13 PM EDT
Moon 1:20 AM EDT 2:48 PM EDT
Length of Visible Light 15h 26m
Length of Day
14h 27m
Waning Crescent, 35% of the Moon is Illuminated
Jul 1
Waning Crescent
Jul 8
New
Jul 15
First Quarter
Jul 22
Full
Jul 29
Last Quarter

Hourly Weather History & Observations

Time (EDT) Temp. Heat Index Dew Point Humidity Pressure Visibility Wind Dir Wind Speed Gust Speed Precip Events Conditions
12:15 AM 78.8 °F - 73.4 °F 83% 29.89 in 10.0 mi SSE 13.8 mph 19.6 mph N/A   Mostly Cloudy
12:35 AM 78.8 °F - 73.4 °F 83% 29.89 in 10.0 mi SSE 11.5 mph - N/A   Overcast
12:55 AM 78.8 °F - 73.4 °F 83% 29.89 in 10.0 mi SSE 11.5 mph 17.3 mph N/A   Overcast
1:15 AM 78.8 °F - 73.4 °F 83% 29.89 in 10.0 mi SSE 11.5 mph 20.7 mph N/A   Overcast
1:35 AM 78.8 °F - 75.2 °F 89% 29.89 in 10.0 mi SSE 11.5 mph - N/A   Overcast
1:55 AM 78.8 °F - 73.4 °F 83% 29.89 in 10.0 mi SSE 12.7 mph 16.1 mph N/A   Overcast
2:15 AM 78.8 °F - 73.4 °F 83% 29.88 in 10.0 mi SSE 11.5 mph - N/A   Overcast
2:35 AM 77.0 °F - 73.4 °F 89% 29.88 in 10.0 mi SSE 10.4 mph - N/A   Overcast
2:55 AM 77.0 °F - 73.4 °F 89% 29.88 in 10.0 mi SSE 8.1 mph - N/A   Mostly Cloudy
3:15 AM 77.0 °F - 73.4 °F 89% 29.88 in 10.0 mi South 8.1 mph 17.3 mph N/A   Overcast
3:35 AM 77.0 °F - 73.4 °F 89% 29.88 in 10.0 mi South 11.5 mph - N/A   Overcast
3:55 AM 77.0 °F - 73.4 °F 89% 29.88 in 10.0 mi South 10.4 mph 18.4 mph N/A   Mostly Cloudy
4:15 AM 75.2 °F - 73.4 °F 94% 29.88 in 10.0 mi South 9.2 mph - N/A   Mostly Cloudy
4:35 AM 75.2 °F - 73.4 °F 94% 29.89 in 10.0 mi South 8.1 mph - N/A   Partly Cloudy
4:55 AM 75.2 °F - 73.4 °F 94% 29.90 in 10.0 mi South 6.9 mph - N/A   Clear
5:15 AM 75.2 °F - 73.4 °F 94% 29.91 in 10.0 mi South 6.9 mph - N/A   Clear
5:35 AM 75.2 °F - 73.4 °F 94% 29.91 in 10.0 mi South 11.5 mph - N/A   Clear
5:55 AM 75.2 °F - 73.4 °F 94% 29.92 in 10.0 mi South 8.1 mph - N/A   Partly Cloudy
6:15 AM 75.2 °F - 73.4 °F 94% 29.93 in 10.0 mi South 6.9 mph - N/A   Scattered Clouds
6:35 AM 75.2 °F - 73.4 °F 94% 29.93 in 9.0 mi SSE 5.8 mph - N/A   Mostly Cloudy
6:55 AM 75.2 °F - 73.4 °F 94% 29.94 in 9.0 mi SSE 6.9 mph - N/A   Partly Cloudy
7:15 AM 77.0 °F - 75.2 °F 94% 29.94 in 9.0 mi SSE 8.1 mph - N/A   Partly Cloudy
7:35 AM 78.8 °F - 75.2 °F 89% 29.94 in 9.0 mi SSE 9.2 mph - N/A   Mostly Cloudy
7:55 AM 75.2 °F - 71.6 °F 89% 29.96 in 5.0 mi South 16.1 mph 24.2 mph N/A Thunderstorm Thunderstorm
8:15 AM 73.4 °F - 71.6 °F 94% 29.96 in 9.0 mi South 10.4 mph - N/A Thunderstorm Mostly Cloudy
8:35 AM 73.4 °F - 71.6 °F 94% 29.97 in 8.0 mi South 5.8 mph - N/A   Scattered Clouds
8:55 AM 73.4 °F - 71.6 °F 94% 29.96 in 10.0 mi South 6.9 mph - N/A   Partly Cloudy
9:15 AM 73.4 °F - 71.6 °F 94% 29.96 in 10.0 mi SSE 6.9 mph - N/A   Clear
9:35 AM 73.4 °F - 71.6 °F 94% 29.97 in 10.0 mi SSE 6.9 mph - N/A   Clear
9:55 AM 73.4 °F - 71.6 °F 94% 29.96 in 10.0 mi SSE 6.9 mph - N/A   Clear
10:15 AM 77.0 °F - 73.4 °F 89% 29.97 in 10.0 mi SSE 6.9 mph - N/A   Clear
10:35 AM 77.0 °F - 73.4 °F 89% 29.98 in 10.0 mi SSE 9.2 mph 16.1 mph N/A   Mostly Cloudy
10:55 AM 75.2 °F - 73.4 °F 94% 29.98 in 8.0 mi SSE 9.2 mph - N/A   Overcast
11:15 AM 75.2 °F - 73.4 °F 94% 29.97 in 8.0 mi SSE 8.1 mph - N/A   Mostly Cloudy
11:35 AM 75.2 °F - 73.4 °F 94% 29.97 in 10.0 mi SE 8.1 mph - N/A   Mostly Cloudy
11:55 AM 75.2 °F - 73.4 °F 94% 29.97 in 10.0 mi SSE 9.2 mph - N/A   Scattered Clouds
12:15 PM 77.0 °F - 73.4 °F 89% 29.97 in 10.0 mi SSE 9.2 mph - N/A   Partly Cloudy
12:35 PM 78.8 °F - 73.4 °F 83% 29.98 in 10.0 mi SSE 12.7 mph - N/A   Scattered Clouds
12:55 PM 78.8 °F - 73.4 °F 83% 29.99 in 10.0 mi SSE 8.1 mph - N/A   Mostly Cloudy
1:15 PM 78.8 °F - 75.2 °F 89% 29.99 in 8.0 mi SE 15.0 mph - N/A   Overcast
1:35 PM 78.8 °F - 73.4 °F 83% 29.99 in 10.0 mi SSE 10.4 mph - N/A   Overcast
1:55 PM 78.8 °F - 75.2 °F 89% 29.98 in 10.0 mi SE 12.7 mph 19.6 mph N/A   Overcast
2:15 PM 80.6 °F 85.4 °F 73.4 °F 79% 29.97 in 10.0 mi SSE 15.0 mph 21.9 mph N/A   Overcast
2:35 PM 78.8 °F - 73.4 °F 83% 29.99 in 10.0 mi SSE 15.0 mph 26.5 mph N/A   Overcast
2:55 PM 78.8 °F - 73.4 °F 83% 29.99 in 10.0 mi SSE 12.7 mph 19.6 mph N/A   Overcast
3:15 PM 77.0 °F - 73.4 °F 89% 29.99 in 5.0 mi SSE 12.7 mph 17.3 mph N/A   Overcast
3:35 PM 77.0 °F - 73.4 °F 89% 30.00 in 10.0 mi SSE 13.8 mph 19.6 mph N/A   Overcast
3:55 PM 77.0 °F - 73.4 °F 89% 30.00 in 10.0 mi SSE 10.4 mph - N/A   Mostly Cloudy
4:15 PM 77.0 °F - 73.4 °F 89% 30.00 in 10.0 mi South 9.2 mph - N/A   Overcast
4:35 PM 77.0 °F - 73.4 °F 89% 30.01 in 9.0 mi South 13.8 mph 17.3 mph N/A   Overcast
4:55 PM 75.2 °F - 73.4 °F 94% 30.01 in 10.0 mi South 9.2 mph 16.1 mph N/A   Overcast
5:15 PM 75.2 °F - 73.4 °F 94% 30.00 in 10.0 mi SSE 11.5 mph - N/A   Overcast
5:35 PM 75.2 °F - 73.4 °F 94% 30.00 in 10.0 mi SSE 10.4 mph 17.3 mph N/A   Overcast
5:55 PM 75.2 °F - 73.4 °F 94% 29.99 in 10.0 mi SSE 9.2 mph - N/A   Mostly Cloudy
6:15 PM 75.2 °F - 71.6 °F 89% 29.99 in 10.0 mi SSE 9.2 mph - N/A   Partly Cloudy
6:35 PM 73.4 °F - 71.6 °F 94% 30.01 in 10.0 mi SSE 9.2 mph - N/A   Clear
6:55 PM 73.4 °F - 71.6 °F 94% 30.01 in 10.0 mi SSE 9.2 mph - N/A   Mostly Cloudy
7:15 PM 73.4 °F - 71.6 °F 94% 30.01 in 10.0 mi SSE 9.2 mph - N/A   Mostly Cloudy
7:35 PM 73.4 °F - 71.6 °F 94% 30.02 in 10.0 mi SSE 10.4 mph - N/A   Clear
7:55 PM 75.2 °F - 73.4 °F 94% 30.02 in 10.0 mi South 10.4 mph - N/A   Scattered Clouds
8:15 PM 75.2 °F - 73.4 °F 94% 30.02 in 10.0 mi SSE 8.1 mph - N/A   Partly Cloudy
8:35 PM 73.4 °F - 71.6 °F 94% 30.02 in 10.0 mi SSE 8.1 mph - N/A   Clear
8:55 PM 73.4 °F - 71.6 °F 94% 30.03 in 10.0 mi SSE 8.1 mph - N/A   Clear
9:15 PM 73.4 °F - 71.6 °F 94% 30.04 in 10.0 mi SSE 8.1 mph - N/A   Clear
9:35 PM 73.4 °F - 71.6 °F 94% 30.05 in 10.0 mi SSE 8.1 mph - N/A   Clear
9:55 PM 73.4 °F - 71.6 °F 94% 30.06 in 10.0 mi South 9.2 mph - N/A   Clear
10:15 PM 73.4 °F - 71.6 °F 94% 30.06 in 10.0 mi SSE 9.2 mph - N/A   Clear
10:35 PM 73.4 °F - 71.6 °F 94% 30.06 in 10.0 mi SSE 8.1 mph - N/A   Clear
10:55 PM 73.4 °F - 71.6 °F 94% 30.06 in 10.0 mi SSE 8.1 mph - N/A   Partly Cloudy
11:15 PM 75.2 °F - 73.4 °F 94% 30.06 in 10.0 mi SSE 10.4 mph - N/A   Clear
11:35 PM 75.2 °F - 73.4 °F 94% 30.07 in 10.0 mi SSE 11.5 mph - N/A   Scattered Clouds
11:55 PM 75.2 °F - 73.4 °F 94% 30.07 in 10.0 mi South 11.5 mph - N/A   Scattered Clouds